Location: Newark
(54.6833°N, 25.2833°E)
Time: 03:57:06
(UTC+00:00)

Altair - Pass Details

Date: 18 November 2019
Orbit: 1502 x 1682 km, 47.2° (Epoch: 05 December)

Event Time Altitude Azimuth Distance (km) Brightness Sun altitude
Rises 08:37:50 0° 283° (WNW) 4,674 9.7 13.9°
Reaches altitude 10° 08:42:01 10° 267° (W) 3,712 9.4 14.1°
Maximum altitude 08:47:51 19° 227° (SW) 3,115 9.6 14.4°
Drops below altitude 10° 08:53:48 10° 188° (S) 3,787 11.0 14.6°
Sets 08:58:10 0° 172° (S) 4,803 11.9 14.8°
